Tracking 29892 objects as of 21-Nov-2024
HD Live streaming from Space Station
objects crossing your sky now

ONEWEB-0656

Track ONEWEB-0656 now!
10-day predictions
ONEWEB-0656 is classified as:


NORAD ID: 55817
Int'l Code: 2023-029X
Perigee: 1,187.5 km
Apogee: 1,190.3 km
Inclination: 87.9 °
Period: 109.0 minutes
Semi major axis: 7559 km
RCS: Unknown
Launch date: March 9, 2023
Source: United Kingdom (UK)
Launch site: AIR FORCE EASTERN TEST RANGE (AFETR)
Your satellite tracking list
Your tracking list is empty




NASA's NSSDC Master Catalog

Two Line Element Set (TLE):
1 55817U 23029X   24325.57367114  .00000059  00000-0  11401-3 0  9996
2 55817  87.9288  28.5307 0001888 120.4860 239.6460 13.20773430 85431
Source of the keplerian elements: AFSPC